[[{"header":{"parameterUnit":"m.s-1","parameterCategory":1,"la1":30.2991,"la2":30.254,"lo1":-89.0895,"lo2":-89.0444,"dy":0.0017,"dx":0.0017,"nx":28,"ny":28,"refTime":"2025-05-19T09:00:00:Z","depth":0,"parameterNumber":2,"parameterNumberName":"U-component_of_WINDS"},"data":[0,0,0,0,0,0,0,0,0,0,0,0,0,0,0,0,0,0,0,0,0,0,0,0,0,0,0,0,0,0,0,0,0,0,0,0,0,0,0,0,0,0,0,0,0,0,0,0,0,0,0,0,0,0,0,0,0,0,2.6119,2.6119,0,2.6085,2.6085,2.6084,2.601,2.6009,2.6007,2.6006,2.5971,2.5972,2.5972,0,0,0,0,0,0,0,0,0,0,0,0,0,2.6119,2.6119,2.6119,2.6119,2.6118,2.6085,2.6085,2.6084,2.6011,2.6009,2.6007,2.6005,2.5971,2.5972,2.5972,0,0,0,0,0,0,0,0,0,0,0,0,0,2.6105,2.6119,2.6119,2.6078,2.6073,2.6085,2.6085,2.6084,2.6011,2.6009,2.6006,2.6004,2.5971,2.5972,2.5972,2.6022,0,0,2.5975,2.5975,0,0,0,0,0,0,0,0,2.6106,2.6105,2.6084,2.608,2.6076,2.605,2.6072,2.6063,2.6012,2.6035,2.6006,2.6003,2.5999,2.5997,2.5996,2.602,2.6019,2.5975,2.5975,2.5975,2.5976,0,0,0,0,0,0,0,2.6107,2.6106,2.6106,2.6084,2.6079,2.606,2.6056,2.607,2.603,2.6033,2.6027,2.6024,2.5996,2.5996,2.5995,2.6018,2.5975,2.5975,2.5976,2.5976,2.6078,2.6081,0,0,0,0,0,0,2.6114,2.6108,2.6107,2.6105,2.6086,2.6062,2.6057,2.606,2.603,2.6023,2.6026,2.6021,2.5995,2.5994,2.5993,2.6047,2.5975,2.5976,2.5976,2.6076,2.6079,2.6081,0,0,0,0,0,0,2.6115,2.6115,2.6108,2.6105,2.6102,2.6064,2.6069,2.6061,2.606,2.6025,2.6017,2.6032,2.5994,2.5992,2.6015,2.6045,2.5976,2.5977,2.6073,2.6077,2.608,2.6156,0,0,0,0,0,0,2.6115,2.6115,2.6134,2.6106,2.6103,2.6131,2.6071,2.6062,2.6061,2.6054,2.6029,2.6022,2.5992,2.6014,2.6015,2.6044,2.5978,2.6071,2.6075,2.6079,2.6151,2.6162,2.6171,0,0,0,0,0,2.6115,2.6158,2.6136,2.6136,2.6126,2.6133,2.6131,2.6095,2.6064,2.6082,2.6059,2.6023,2.6042,2.6017,2.6018,2.6048,2.6068,2.6074,2.6079,2.6146,2.6159,2.6171,0,0,0,0,0,0,2.6192,2.6153,2.6128,2.6163,2.6152,2.612,2.6142,2.6111,2.6108,2.6101,2.6056,2.6051,2.6079,2.6066,2.6039,2.6092,2.6049,2.6055,2.61,2.6112,2.6122,2.6124,2.5978,0,0,0,0,0,2.6212,2.6222,2.6188,2.6221,2.6217,2.6181,2.6183,2.6155,2.6142,2.6137,2.6115,2.6103,2.6106,2.6109,2.611,2.6149,2.6141,2.617,2.618,2.6188,2.6193,2.621,2.6222,2.6098,2.6098,2.6098,0,0,2.6256,2.6236,2.6244,2.6236,2.6224,2.6234,2.6177,2.619,2.6196,2.6139,2.6157,2.6142,2.6125,2.6156,2.6168,2.6145,2.6226,2.6195,2.6202,2.6202,2.6217,2.6228,2.6239,2.6102,2.6101,2.6101,0,0,2.6339,2.6326,2.6351,2.634,2.6322,2.6297,2.6303,2.6276,2.6263,2.6282,2.6238,2.6245,2.6251,2.624,2.6235,2.6313,2.6278,2.6314,2.6367,2.6384,2.6394,2.6402,2.6427,2.6437,2.6319,2.632,2.632,0,2.6394,2.6407,2.6368,2.6383,2.638,2.6328,2.6352,2.6343,2.6327,2.6325,2.63,2.6305,2.6291,2.6316,2.6335,2.6334,2.6338,2.6316,2.6395,2.6403,2.6411,2.6434,2.6444,2.6324,2.6323,2.6323,2.6323,0,2.6475,2.6485,2.6507,2.6492,2.6491,2.6511,2.6474,2.6478,2.6451,2.6429,2.6447,2.6428,2.6423,2.6427,2.6402,2.6449,2.6435,2.6404,2.6359,2.6427,2.6448,2.6457,2.633,2.6329,2.6327,2.6326,0,0,2.6605,2.6567,2.6575,2.6566,2.6542,2.6548,2.6565,2.656,2.6563,2.6554,2.6565,2.6571,2.6541,2.6536,2.6508,2.6524,2.6583,2.649,2.6489,2.6506,2.663,2.6652,2.6664,2.6561,2.6562,2.6563,2.6631,0,2.668,2.6707,2.6671,2.6705,2.6712,2.6662,2.6676,2.6663,2.6642,2.6645,2.6622,2.6626,2.6587,2.6583,2.6597,2.6573,2.6607,2.6568,2.6569,2.657,2.6573,2.6675,2.6699,2.6763,2.6639,2.6641,2.6642,0,2.6772,2.6765,2.68,2.6771,2.6773,2.6786,2.6777,2.6781,2.6763,2.6747,2.6741,2.6708,2.6721,2.6679,2.6695,2.6669,2.6668,2.6656,2.6658,2.6655,2.6608,2.6672,2.6784,2.6792,2.6655,2.6654,2.6653,0,2.686,2.686,2.6879,2.6874,2.6842,2.6852,2.6839,2.682,2.6818,2.681,2.6808,2.6802,2.6799,2.6794,2.676,2.6733,2.678,2.6735,2.6765,2.6766,2.6776,2.6775,2.6886,2.6779,2.6779,2.6779,2.6779,0,2.6946,2.6969,2.6918,2.693,2.6953,2.6912,2.6936,2.6918,2.6901,2.6907,2.6865,2.6872,2.6827,2.6829,2.6802,2.6818,2.6818,2.6804,2.6796,2.6806,2.6808,2.6803,2.6797,2.6781,2.6781,2.678,2.678,0,2.7048,2.7015,2.7033,2.7001,2.6993,2.7011,2.6983,2.6992,2.6969,2.6978,2.6978,2.6941,2.6941,2.6906,2.69,2.6881,2.6908,2.6893,2.6914,2.6908,2.6938,2.6935,2.7048,2.706,2.6948,2.695,2.695,0,2.7104,2.7119,2.7089,2.709,2.7079,2.7082,2.7079,2.7039,2.7038,2.7019,2.703,2.7026,2.7021,2.7023,2.6995,2.6989,2.6973,2.7013,2.6971,2.698,2.697,2.6968,2.6969,2.7021,2.7022,2.7023,2.7024,0,2.7206,2.7189,2.7187,2.7179,2.7176,2.7168,2.7158,2.7161,2.7117,2.7118,2.7117,2.7113,2.7105,2.7101,2.709,2.7076,2.7042,2.7038,2.7044,2.7053,2.7063,2.7055,2.6935,2.7035,2.7034,2.7033,2.7032,2.7032,2.7284,2.7295,2.7274,2.7273,2.726,2.7251,2.7257,2.7234,2.7232,2.7222,2.7199,2.7202,2.7182,2.7163,2.7152,2.7152,2.7132,2.7142,2.7144,2.7146,2.7151,2.7065,2.7151,2.715,2.715,2.715,2.7149,0,2.7382,2.7366,2.7365,2.735,2.7349,2.7318,2.7304,2.7304,2.7307,2.7292,2.7287,2.7285,2.7281,2.7252,2.7244,2.725,2.7234,2.7249,2.7247,2.7244,2.7171,2.7165,2.7262,2.7262,2.7262,2.7262,2.7262,2.7262,2.7432,2.7448,2.7428,2.7436,2.742,2.7421,2.7416,2.7406,2.7393,2.7393,2.7389,2.737,2.7349,2.7339,2.7333,2.7325,2.7323,2.7342,2.7329,2.726,2.7249,2.7239,2.7233,2.7343,2.7343,2.7401,2.7402,2.7402]},{"header":{"parameterUnit":"m.s-1","parameterCategory":1,"la1":30.2991,"la2":30.254,"lo1":-89.0895,"lo2":-89.0444,"dy":0.0017,"dx":0.0017,"nx":28,"ny":28,"refTime":"2025-05-19T09:00:00:Z","depth":0,"parameterNumber":3,"parameterNumberName":"V-component_of_WINDS"},"data":[0,0,0,0,0,0,0,0,0,0,0,0,0,0,0,0,0,0,0,0,0,0,0,0,0,0,0,0,0,0,0,0,0,0,0,0,0,0,0,0,0,0,0,0,0,0,0,0,0,0,0,0,0,0,0,0,0,0,6.6865,6.6866,0,6.7025,6.7027,6.7028,6.7005,6.7003,6.7,6.6998,6.7154,6.716,6.7167,0,0,0,0,0,0,0,0,0,0,0,0,0,6.653,6.6536,6.6865,6.6867,6.6869,6.7024,6.7027,6.7029,6.7006,6.7003,6.6999,6.6996,6.7152,6.7159,6.7167,0,0,0,0,0,0,0,0,0,0,0,0,0,6.6681,6.6538,6.6864,6.6876,6.6879,6.7024,6.7027,6.7029,6.7007,6.7003,6.6999,6.6995,6.7149,6.7159,6.7169,6.731,0,0,6.7199,6.7203,0,0,0,0,0,0,0,0,6.6673,6.6693,6.6872,6.6876,6.6879,6.6991,6.6966,6.7123,6.7008,6.6958,6.6997,6.6993,6.7102,6.7116,6.7154,6.7317,6.7324,6.72,6.7206,6.721,6.7213,0,0,0,0,0,0,0,6.6662,6.6686,6.6928,6.6875,6.6879,6.687,6.6888,6.6996,6.705,6.6962,6.6961,6.698,6.7103,6.7145,6.7158,6.7326,6.72,6.7208,6.7215,6.7218,6.761,6.7614,0,0,0,0,0,0,6.665,6.6678,6.6923,6.6932,6.6764,6.688,6.6899,6.6959,6.7049,6.7059,6.6983,6.6979,6.713,6.7146,6.7163,6.7333,6.721,6.7219,6.7225,6.7605,6.7611,6.7615,0,0,0,0,0,0,6.6643,6.6672,6.6916,6.6805,6.6835,6.689,6.6957,6.6964,6.7006,6.7066,6.7074,6.7017,6.7127,6.7149,6.7274,6.7339,6.7224,6.7233,6.76,6.7607,6.7613,6.7675,0,0,0,0,0,0,6.6633,6.6669,6.6726,6.6807,6.6842,6.7027,6.6962,6.697,6.7024,6.7019,6.7099,6.7108,6.7126,6.7259,6.7283,6.735,6.7241,6.7594,6.7603,6.7611,6.7668,6.7683,6.7697,0,0,0,0,0,6.6621,6.6736,6.6729,6.6759,6.6914,6.7031,6.705,6.7071,6.703,6.7085,6.7123,6.7106,6.7327,6.7272,6.7299,6.737,6.759,6.7601,6.761,6.7661,6.768,6.7696,0,0,0,0,0,0,6.6659,6.6747,6.674,6.6885,6.6951,6.7027,6.7098,6.709,6.7167,6.7159,6.7178,6.7197,6.7322,6.7358,6.7295,6.751,6.7453,6.7469,6.7482,6.7501,6.7515,6.7503,6.7249,0,0,0,0,0,6.6685,6.6776,6.6846,6.6966,6.7,6.7043,6.7095,6.7105,6.7173,6.72,6.7247,6.7311,6.7395,6.745,6.753,6.7673,6.7688,6.7734,6.7749,6.776,6.7774,6.7849,6.787,6.7648,6.7648,6.7648,0,0,6.6738,6.6797,6.6853,6.6976,6.7028,6.7118,6.7067,6.7165,6.7231,6.7214,6.7335,6.7371,6.7443,6.7577,6.7638,6.7611,6.7838,6.7773,6.7782,6.7789,6.7862,6.7883,6.7901,6.7655,6.7653,6.7652,0,0,6.6882,6.6936,6.7042,6.7096,6.7176,6.7204,6.7229,6.7306,6.733,6.7452,6.744,6.7517,6.7662,6.7714,6.7759,6.792,6.7906,6.7945,6.8021,6.8094,6.8112,6.8127,6.8183,6.8203,6.7958,6.7959,6.7959,0,6.6937,6.7076,6.7097,6.7197,6.725,6.724,6.7346,6.7395,6.7497,6.7532,6.7501,6.7681,6.773,6.7874,6.7913,6.7951,6.7978,6.7937,6.8108,6.8124,6.8139,6.8192,6.8213,6.7963,6.7962,6.7962,6.7961,0,6.7139,6.7235,6.731,6.7411,6.7472,6.7574,6.7608,6.7667,6.767,6.77,6.7823,6.788,6.7971,6.8006,6.801,6.8151,6.8131,6.8104,6.8047,6.8164,6.8214,6.8235,6.7969,6.7967,6.7966,6.7965,0,0,6.7312,6.7423,6.745,6.7495,6.7581,6.7654,6.7754,6.7846,6.7895,6.7964,6.8047,6.8169,6.8143,6.8195,6.8204,6.8269,6.839,6.8233,6.8235,6.8259,6.8546,6.8566,6.859,6.8381,6.8385,6.8388,6.8539,0,6.7463,6.7643,6.7664,6.7823,6.791,6.7901,6.7987,6.8048,6.8078,6.8154,6.8185,6.8271,6.8232,6.8263,6.8327,6.8362,6.8448,6.8351,6.8455,6.8459,6.8438,6.8616,6.8638,6.8778,6.8559,6.8563,6.8565,0,6.7664,6.7741,6.7909,6.7983,6.802,6.8098,6.8182,6.8256,6.8323,6.834,6.8397,6.8397,6.8497,6.8436,6.8571,6.8505,6.8549,6.8572,6.8578,6.8588,6.8519,6.863,6.8823,6.8844,6.8597,6.8594,6.8592,0,6.7772,6.7918,6.8037,6.8075,6.8164,6.8219,6.8258,6.8321,6.8374,6.8447,6.8481,6.8563,6.8608,6.867,6.8691,6.8645,6.8825,6.8766,6.884,6.884,6.8879,6.8876,6.9081,6.8907,6.8907,6.8907,6.8906,0,6.7939,6.8041,6.8087,6.816,6.8274,6.8295,6.8406,6.8442,6.8498,6.8576,6.8572,6.8644,6.8668,6.8743,6.876,6.8869,6.8889,6.8904,6.8907,6.8904,6.8902,6.8933,6.8923,6.8912,6.8911,6.891,6.8909,0,6.8079,6.8114,6.8243,6.8316,6.8337,6.8418,6.8479,6.8548,6.8576,6.8674,6.8698,6.8742,6.883,6.8857,6.8963,6.8974,6.9101,6.9096,6.908,6.908,6.9151,6.9144,6.9383,6.9415,6.9221,6.9223,6.9224,0,6.8183,6.8262,6.8344,6.8397,6.8439,6.8524,6.8578,6.8601,6.8657,6.8739,6.8797,6.8885,6.8957,6.9098,6.9137,6.9217,6.9213,6.9291,6.9225,6.9219,6.9213,6.9208,6.9215,6.9303,6.9305,6.9307,6.9308,0,6.8363,6.8376,6.8456,6.8542,6.8607,6.8675,6.8741,6.8783,6.8815,6.8877,6.8969,6.9025,6.9133,6.9219,6.9301,6.9337,6.9328,6.9329,6.935,6.9348,6.9335,6.9342,6.9113,6.9323,6.9322,6.9321,6.932,6.9319,6.8488,6.8558,6.8626,6.8715,6.8766,6.8827,6.8895,6.8932,6.901,6.9102,6.9109,6.9208,6.927,6.9378,6.9419,6.9494,6.9471,6.9502,6.951,6.9517,6.9522,6.9323,6.9509,6.9508,6.9508,6.9507,6.9507,0,6.8667,6.8711,6.8792,6.8885,6.8953,6.894,6.9011,6.9069,6.9156,6.9216,6.9287,6.9391,6.9474,6.952,6.9602,6.9653,6.965,6.9673,6.967,6.9678,6.9538,6.9512,6.9674,6.9674,6.9674,6.9674,6.9674,6.9674,6.8769,6.8885,6.8906,6.9046,6.9088,6.9187,6.9228,6.9283,6.9331,6.9448,6.9518,6.9548,6.9601,6.9687,6.9761,6.9772,6.9802,6.9828,6.9836,6.9705,6.9688,6.9672,6.9646,6.9835,6.9835,6.9969,6.997,6.9971]}]]